Sioux Falls, SD

4:37 PM CDT on October 18, 2019 (GMT -0500)
Foss

Weather History for KFSD - August, 2019

Change the Weather History Date:

Tuesday, August 20, 2019

  Actual Average Record
Temperature  
Mean Temperature 78 °F 70 °F  
Max Temperature 89 °F 81 °F 99 °F (1955)
Min Temperature 67 °F 59 °F 34 °F (1950)
Degree Days  
Heating Degree Days 0 1  
Month to date heating degree days 0 7  
Since 1 June heating degree days 20 66  
Since 1 July heating degree days 0 15  
Cooling Degree Days 13 6  
Month to date cooling degree days 158 142  
Year to date cooling degree days 686 569  
Since 1 June cooling degree days 671 533  
Growing Degree Days 28 (Base 50)    
Moisture  
Dew Point 71 °F    
Average Humidity 79    
Maximum Humidity 93    
Minimum Humidity 57    
Precipitation  
Precipitation 0.01 in 0.10 in 1.51 in (2002)
Month to date precipitation 1.84 2.00  
Year to date precipitation 29.03 18.34  
Snow  
Snow 0.00 in 0.00 in 0.00 in ()
Month to date snowfall T 0.0  
Since 1 June snowfall T 0.0  
Since 1 July snowfall T 0.0  
Snow Depth 0.00 in    
Sea Level Pressure  
Sea Level Pressure 29.94 in    
Wind  
Wind Speed 7 mph ()    
Max Wind Speed 16 mph    
Max Gust Speed 24 mph    
Visibility 9.8 miles    
Events Rain    
T = Trace of Precipitation, MM = Missing Value Source: Averaged Metar Reports

Daily Weather History Graph

Daily Weather History Graph

Search for Another Location

Airport or City:

Astronomy

Aug. 20, 2019 Rise Set
Actual Time 6:37 AM CDT 8:22 PM CDT
Civil Twilight 6:06 AM CDT 8:53 PM CDT
Nautical Twilight 5:29 AM CDT 9:30 PM CDT
Astronomical Twilight 4:49 AM CDT 10:10 PM CDT
Moon 11:03 PM CDT (8/20) 11:24 AM CDT (8/20)
Length of Visible Light 14h 46m
Length of Day
13h 45m
Waning Gibbous, 77% of the Moon is Illuminated
Aug 20
Waning Gibbous
Aug 23
Last Quarter
Aug 30
New
Sep 5
First Quarter
Sep 13
Full

Hourly Weather History & Observations

Time (CDT) Temp. Heat Index Dew Point Humidity Pressure Visibility Wind Dir Wind Speed Gust Speed Precip Events Conditions
12:05 AM 75.9 °F - 70.0 °F 82% 29.93 in 10.0 mi SSE 12.7 mph 24.2 mph 0.00 in   Mostly Cloudy
12:56 AM 75.9 °F - 70.0 °F 82% 29.89 in 10.0 mi SSE 13.8 mph 20.7 mph 0.00 in Rain Light Rain
1:56 AM 75.0 °F - 71.1 °F 87% 29.87 in 10.0 mi SSE 13.8 mph 19.6 mph 0.00 in   Mostly Cloudy
2:56 AM 73.9 °F - 71.1 °F 91% 29.84 in 10.0 mi SSE 4.6 mph - N/A   Clear
3:34 AM 73.0 °F - 71.1 °F 93% 29.87 in 10.0 mi SE 4.6 mph - N/A   Mostly Cloudy
3:46 AM 73.9 °F - 71.1 °F 91% 29.87 in 10.0 mi SE 5.8 mph - N/A   Overcast
3:56 AM 73.9 °F - 71.1 °F 91% 29.85 in 10.0 mi SE 5.8 mph - N/A   Overcast
4:56 AM 73.9 °F - 71.1 °F 91% 29.84 in 10.0 mi South 8.1 mph - N/A   Overcast
5:56 AM 75.0 °F - 72.0 °F 90% 29.83 in 10.0 mi South 9.2 mph - N/A   Overcast
6:21 AM 75.9 °F - 72.0 °F 87% 29.87 in 10.0 mi SSE 6.9 mph - N/A   Overcast
6:56 AM 75.9 °F - 73.0 °F 91% 29.86 in 9.0 mi South 4.6 mph - 0.00 in Rain Light Rain
7:56 AM 75.0 °F - 72.0 °F 90% 29.91 in 5.0 mi SE 9.2 mph - 0.01 in   Overcast
8:56 AM 73.9 °F - 69.1 °F 85% 29.93 in 10.0 mi South 6.9 mph - N/A   Overcast
9:30 AM 75.9 °F - 69.1 °F 79% 29.96 in 10.0 mi SE 6.9 mph - N/A   Scattered Clouds
9:56 AM 78.1 °F - 70.0 °F 76% 29.94 in 10.0 mi SE 5.8 mph - N/A   Partly Cloudy
10:25 AM 79.0 °F - 71.1 °F 77% 29.98 in 10.0 mi SSE 4.6 mph - N/A   Mostly Cloudy
10:56 AM 80.1 °F 83.8 °F 72.0 °F 76% 29.95 in 10.0 mi SSE 5.8 mph - N/A   Mostly Cloudy
11:21 AM 80.1 °F 83.6 °F 71.1 °F 74% 29.98 in 10.0 mi SE 9.2 mph - N/A   Mostly Cloudy
11:48 AM 82.9 °F 88.8 °F 73.0 °F 72% 29.98 in 10.0 mi Variable 3.5 mph - N/A   Scattered Clouds
11:56 AM 82.0 °F 87.4 °F 73.0 °F 74% 29.95 in 10.0 mi South 3.5 mph - N/A   Partly Cloudy
12:56 PM 84.0 °F 90.2 °F 73.0 °F 69% 29.95 in 10.0 mi NNE 6.9 mph - N/A   Partly Cloudy
1:56 PM 87.1 °F 94.5 °F 73.0 °F 63% 29.96 in 10.0 mi North 5.8 mph - N/A   Partly Cloudy
2:56 PM 88.0 °F 93.8 °F 71.1 °F 57% 29.96 in 10.0 mi NNE 9.2 mph - N/A   Partly Cloudy
3:56 PM 87.1 °F 92.8 °F 71.1 °F 59% 29.95 in 10.0 mi ENE 4.6 mph - N/A   Mostly Cloudy
4:56 PM 88.0 °F 93.8 °F 71.1 °F 57% 29.95 in 10.0 mi NE 3.5 mph - N/A   Mostly Cloudy
5:56 PM 84.0 °F 89.6 °F 72.0 °F 67% 29.99 in 10.0 mi North 9.2 mph - N/A   Mostly Cloudy
6:56 PM 84.0 °F 89.6 °F 72.0 °F 67% 29.98 in 10.0 mi North 6.9 mph - N/A   Scattered Clouds
7:56 PM 79.0 °F - 70.0 °F 74% 29.98 in 10.0 mi North 8.1 mph - N/A   Partly Cloudy
8:56 PM 77.0 °F - 69.1 °F 76% 30.00 in 10.0 mi North 8.1 mph - N/A   Partly Cloudy
9:56 PM 73.9 °F - 68.0 °F 82% 30.02 in 10.0 mi North 4.6 mph - N/A   Clear
10:56 PM 72.0 °F - 66.9 °F 84% 30.04 in 10.0 mi NNE 13.8 mph 23.0 mph N/A   Clear
11:56 PM 69.1 °F - 64.0 °F 84% 30.06 in 10.0 mi NNE 9.2 mph - N/A   Clear